GFSFLT2_250_spd_231.txt.gz
Wind_Speed
20 21 20 17 16 16 16 19 19 26 30 33 35 35 22 32 25 17 9 0 4 5 9 10 13 20 19 20 28 27 27 28
23 22 22 20 20 20 20 21 27 34 33 35 36 32 30 29 29 22 16 9 11 6 3 5 11 17 22 28 35 33 34 35
26 23 23 20 22 22 23 22 27 34 33 36 35 35 35 26 25 27 25 20 17 18 11 8 14 13 21 25 29 33 29 32
27 25 22 23 20 25 23 26 25 37 33 32 32 38 37 31 26 29 29 32 24 24 19 16 22 22 21 25 27 35 42 46
26 25 28 28 23 25 29 27 28 34 36 34 32 35 32 34 35 28 24 26 21 22 18 20 24 24 24 26 29 31 32 32
27 27 27 27 29 27 33 31 26 33 35 39 42 39 38 34 28 38 29 27 30 28 24 26 30 31 31 30 30 31 31 32
26 24 18 14 29 33 38 36 33 35 36 32 37 41 37 38 32 33 33 28 30 27 29 35 33 33 35 36 37 37 38 36
31 29 26 25 19 33 43 43 37 41 40 34 36 40 38 33 30 32 34 35 37 39 39 37 37 35 38 42 43 44 45 46
39 36 34 30 30 31 41 45 36 38 41 41 36 37 36 41 33 28 30 34 39 45 49 48 41 41 43 42 46 48 47 49
40 39 37 41 31 30 33 40 40 37 41 45 42 44 44 37 34 35 38 43 38 32 38 43 44 45 43 44 46 47 50 52
45 42 39 42 35 31 37 45 44 43 45 45 46 45 49 48 49 49 43 40 39 40 43 40 43 45 46 47 50 53 56 58
45 43 40 41 43 27 26 35 38 40 38 34 34 42 46 51 49 43 38 42 46 54 58 49 47 49 49 51 54 57 60 63
47 45 43 43 38 28 34 31 32 32 34 33 33 43 46 53 52 54 49 54 49 44 44 47 50 51 52 53 58 61 63 65
51 47 43 49 47 48 41 36 38 39 39 43 46 50 49 46 52 56 57 54 44 44 44 47 49 52 54 57 59 62 64 66
48 45 44 46 52 49 44 41 45 45 41 46 58 43 39 39 46 54 55 48 42 43 45 48 52 56 58 59 61 63 66 68
45 44 46 50 51 53 47 42 43 44 48 52 35 31 31 30 30 32 36 39 40 44 49 52 55 57 59 62 64 66 68 66
44 46 47 48 51 49 51 54 51 51 52 33 28 27 27 29 31 34 37 40 43 47 51 53 55 58 61 64 66 66 65 65
44 43 43 45 42 41 38 35 31 25 26 24 25 25 27 31 34 38 41 44 47 49 50 53 56 58 62 65 66 66 67 69
34 31 29 31 32 28 24 20 21 23 22 24 25 27 31 35 38 42 45 48 47 49 52 54 58 61 64 64 66 68 69 67

GFSFLT2_250_spd_234.txt.gz
Wind_Speed
13 15 17 13 15 20 22 22 25 24 20 25 24 37 36 31 23 7 16 11 12 13 13 13 12 11 22 26 26 24 28 29
18 17 19 16 18 20 22 25 28 29 24 30 28 34 45 36 38 22 15 21 10 8 10 9 13 18 20 24 30 34 33 32
22 21 19 20 20 22 26 27 29 31 28 33 35 35 44 45 40 39 23 26 29 20 18 15 15 16 21 24 25 29 35 40
26 25 23 22 22 24 30 32 30 28 30 33 39 41 41 45 40 35 32 31 30 30 26 25 23 22 16 22 28 32 33 36
29 28 27 26 25 29 33 37 31 32 31 29 43 43 41 44 40 37 31 32 31 31 28 28 29 32 27 21 21 23 27 32
32 30 25 27 30 33 34 37 37 37 33 34 42 40 39 42 41 36 38 32 27 32 31 28 27 26 25 25 28 30 33 35
34 29 29 26 27 24 27 34 37 40 38 34 35 40 36 39 40 41 40 36 31 34 32 32 29 29 30 33 36 36 37 37
40 33 33 29 28 28 31 35 38 40 40 41 37 34 39 42 38 39 42 41 39 38 37 34 36 35 40 42 39 39 37 38
40 37 37 33 31 33 39 39 36 42 43 40 38 37 39 39 42 43 39 45 39 43 45 43 39 42 45 44 43 43 45 46
42 40 41 43 40 39 36 39 42 38 39 39 40 37 46 45 45 43 40 44 41 38 38 38 41 41 39 40 43 43 45 47
43 45 43 46 44 41 37 37 39 39 37 39 39 34 30 38 44 42 42 45 46 48 49 47 46 43 43 48 52 53 52 50
47 48 48 50 48 43 38 43 36 33 33 37 41 39 39 37 34 39 42 42 39 40 41 39 39 45 51 50 51 49 50 52
49 50 51 52 52 46 41 42 35 33 29 28 38 44 41 42 43 41 47 41 39 42 43 46 51 51 50 49 49 50 53 57
53 54 53 56 53 49 46 44 39 34 33 34 37 37 40 41 41 43 44 44 43 42 43 45 47 47 49 49 51 54 57 60
57 56 53 51 51 51 50 45 42 43 40 39 42 43 44 45 42 42 37 36 35 34 37 40 43 45 48 51 53 56 58 59
52 52 52 51 52 51 50 45 45 47 44 38 38 42 42 39 43 31 26 27 28 30 33 37 42 46 50 53 55 56 58 60
51 47 48 49 48 47 46 42 41 40 39 41 40 36 38 37 28 27 27 28 30 34 39 43 46 49 52 53 54 55 60 64
49 49 47 44 42 41 39 37 36 34 33 30 26 27 27 26 26 26 29 33 36 39 44 47 50 51 51 53 56 60 62 64
49 47 47 44 40 38 36 29 27 27 23 18 20 23 25 25 26 30 33 36 40 44 46 47 48 49 52 57 58 60 62 64

GFSFLT2_250_spd_237.txt.gz
Wind_Speed
18 15 14 14 16 18 19 21 24 22 18 16 19 23 33 29 31 31 29 18 21 21 20 16 15 15 21 24 28 26 27 26
18 18 18 17 19 21 21 24 25 23 21 20 19 22 30 40 27 31 28 26 22 21 21 21 19 19 19 21 25 24 28 28
22 23 22 22 22 23 25 27 26 28 24 22 19 26 28 34 41 30 22 27 24 24 18 19 22 22 20 20 25 27 27 35
26 26 25 24 24 26 29 29 30 30 32 26 24 23 32 32 39 44 39 32 27 30 31 30 28 24 23 22 24 29 32 36
30 30 29 26 27 29 31 32 33 32 31 31 24 22 28 34 37 39 37 39 36 34 34 33 33 30 29 30 31 31 30 33
33 32 32 31 30 32 34 33 33 31 29 29 27 25 25 33 37 39 38 40 36 36 34 34 38 40 38 35 34 37 41 31
36 34 34 34 34 34 33 37 34 30 28 30 28 28 28 26 36 39 38 40 43 41 42 40 39 39 38 40 42 41 39 35
37 36 36 35 39 36 34 33 33 31 32 34 31 29 25 28 28 37 33 34 37 37 41 45 42 40 39 40 39 37 38 43
41 39 36 37 40 37 38 36 32 34 36 35 36 32 22 22 28 33 37 35 35 37 41 41 39 38 37 40 41 39 39 38
44 41 37 43 43 39 40 41 38 36 37 35 33 33 25 17 26 34 39 40 37 35 36 39 40 39 41 41 40 42 38 40
45 44 42 44 45 45 41 47 45 41 39 34 33 31 30 22 23 24 23 32 38 40 39 38 41 45 46 49 52 53 54 48
44 44 41 44 45 45 41 44 41 43 40 37 27 18 22 26 29 31 29 30 32 33 38 40 44 49 47 45 44 46 48 53
48 48 47 46 48 47 44 43 43 41 43 38 33 30 27 28 29 32 37 37 37 41 41 49 52 49 47 45 42 44 47 48
54 55 53 53 50 49 48 46 48 47 44 42 40 38 37 33 34 35 39 41 42 45 49 55 51 46 41 35 36 39 42 45
57 56 56 56 54 52 50 51 51 48 45 43 44 42 40 38 35 40 42 41 45 44 42 34 28 26 27 31 36 41 45 49
59 58 57 56 54 54 51 50 46 44 41 43 44 42 42 40 34 37 44 42 38 31 28 26 25 28 33 38 42 45 49 52
59 59 59 58 55 54 46 40 38 42 47 44 42 41 37 34 33 32 33 28 25 24 23 26 31 35 38 42 45 48 50 51
59 58 59 58 55 50 44 42 42 43 42 41 38 36 34 31 28 23 19 21 21 24 30 32 35 39 42 44 46 49 52 57
51 52 52 51 46 43 40 39 39 39 37 36 30 28 26 20 16 16 18 22 26 29 32 36 39 39 41 45 48 53 55 55

GFSFLT2_250_spd_240.txt.gz
Wind_Speed
17 21 21 18 17 17 15 17 16 18 18 14 12 16 17 27 27 28 22 25 23 28 26 15 18 20 22 23 26 23 24 26
23 24 22 21 23 20 18 17 18 20 17 17 15 16 18 26 34 31 29 24 28 28 24 24 25 29 25 26 29 29 28 30
26 27 27 28 27 24 22 22 20 18 17 18 19 18 16 21 38 33 32 32 28 31 29 30 33 35 32 27 24 23 27 30
29 32 31 32 29 27 26 26 23 22 21 23 25 19 15 18 24 37 34 34 33 33 35 34 29 27 25 26 25 25 27 34
34 36 36 31 28 29 28 29 26 23 24 25 24 16 13 14 20 28 32 39 37 35 35 35 34 31 30 30 30 29 27 27
41 40 37 33 34 33 31 30 30 27 24 25 23 20 15 15 17 22 30 33 34 36 37 39 39 39 38 34 37 37 37 37
42 40 36 35 35 36 34 30 27 28 27 25 23 22 23 21 18 17 24 31 35 36 34 37 38 37 38 39 41 40 41 37
42 41 40 38 38 38 34 31 27 29 30 29 26 25 27 25 22 20 23 31 32 34 36 35 29 31 33 37 39 39 42 42
43 43 42 39 42 40 38 35 30 28 30 33 30 28 30 29 20 23 22 26 37 34 34 37 34 35 39 42 41 43 42 41
46 47 44 45 46 43 41 38 35 30 32 35 36 35 36 30 23 22 23 27 29 31 38 37 35 34 35 36 41 43 45 46
50 49 49 46 47 46 44 44 39 34 36 36 39 40 40 33 24 20 23 26 26 28 31 34 37 40 45 44 44 43 46 49
52 48 48 47 44 44 41 41 36 34 35 38 39 40 38 34 31 23 21 22 26 29 29 31 35 39 39 42 48 51 49 53
54 53 53 48 49 49 46 42 38 40 37 37 39 39 40 40 35 32 27 28 32 35 35 36 38 41 44 47 51 56 61 56
56 56 56 52 51 50 49 45 44 44 42 42 41 42 43 44 40 37 36 35 35 40 40 40 43 45 48 54 55 47 41 39
59 58 56 54 52 51 51 50 49 47 45 45 45 48 48 47 44 40 37 43 39 39 43 45 45 45 50 40 31 29 29 32
62 60 60 59 57 55 52 52 51 49 47 47 51 51 49 44 42 40 39 39 40 42 46 46 45 43 35 31 30 33 36 39
64 64 64 63 61 59 57 55 53 52 50 51 47 41 40 43 41 39 37 37 41 41 41 41 35 31 30 32 35 37 39 40
65 63 65 64 65 64 60 55 52 51 50 50 47 45 44 42 39 38 38 37 39 38 31 27 27 29 32 35 37 38 37 38
62 65 65 64 64 64 63 60 57 52 51 49 46 44 42 40 39 39 35 34 29 25 25 26 29 31 35 37 38 38 40 43

GFSFLT2_250_spd_246.txt.gz
Wind_Speed
26 27 23 16 19 17 15 14 10 12 9 11 9 12 22 20 20 21 22 27 26 23 24 27 26 25 24 20 22 24 22 25
31 27 23 20 21 20 16 15 14 12 8 5 12 19 20 25 27 25 24 26 33 25 27 25 28 30 28 22 18 21 23 18
31 29 26 26 25 21 19 15 15 16 14 17 13 22 32 32 33 33 24 27 32 37 30 29 30 28 26 26 23 22 24 25
35 33 28 28 25 23 21 16 13 15 10 13 18 23 37 37 39 35 26 27 30 37 39 34 33 35 34 31 30 31 28 26
36 31 29 30 28 27 22 18 15 14 5 9 23 29 36 40 39 34 28 26 30 35 43 43 38 36 34 35 34 35 30 29
33 35 35 32 30 30 25 21 20 17 21 14 15 39 27 38 39 35 27 28 29 32 38 46 45 42 38 37 39 39 38 38
38 38 37 35 32 32 29 27 23 26 26 33 9 46 43 45 40 36 31 29 27 28 34 39 46 46 43 42 44 42 43 43
40 39 37 35 32 33 30 33 30 34 34 31 42 47 46 38 39 38 36 35 30 27 29 34 40 45 46 46 41 40 42 42
36 37 36 37 35 38 38 38 37 39 43 37 39 38 43 33 41 41 39 37 34 31 29 30 34 38 43 47 49 48 45 45
36 36 31 39 41 40 34 37 38 44 37 41 33 39 41 46 38 43 40 38 34 34 29 26 29 37 41 41 41 42 41 41
42 39 39 40 31 31 33 35 30 31 34 27 38 53 41 50 43 41 37 37 36 35 33 30 30 32 39 48 46 45 43 46
35 43 41 37 28 24 24 39 29 20 49 50 42 55 49 45 46 42 39 39 40 40 39 35 35 37 37 41 44 49 52 52
28 31 25 31 23 34 34 45 37 32 40 46 51 46 50 54 53 46 45 45 40 38 40 40 37 40 40 42 46 48 48 49
55 55 60 41 48 37 37 27 41 46 55 61 60 57 61 62 59 52 48 48 44 45 45 46 46 44 44 47 48 49 50 53
56 58 65 58 47 48 55 41 45 66 68 70 71 70 68 66 61 57 51 49 46 46 49 52 48 47 44 46 47 51 51 48
45 50 54 62 49 58 60 65 77 68 74 77 74 73 70 68 64 61 55 53 52 53 52 52 49 42 39 43 47 49 49 51
62 65 68 70 74 61 58 63 61 64 70 71 67 69 67 66 66 61 57 53 53 51 50 50 51 45 44 45 45 46 46 48
30 53 62 66 76 73 64 63 72 74 74 75 77 71 68 69 64 59 57 54 51 50 49 52 50 45 42 42 43 42 42 42
49 54 53 52 59 70 64 66 70 70 71 71 68 67 65 64 61 57 55 52 50 50 52 48 42 40 40 38 36 36 35 31